Database: COMPET-N - COOP - 3PL - 4PL - CNDOOM

WAD: Doom | Doom 2 | TNT | Plutonia | AV | HR | Scythe | MM | MM2 | Requiem | CE
Category: speed | nmare | max | nm100s | tyson | pacifist | fast | respawn | nomo | misc | built | all
Highscore: ALL | IWAD | PWAD | Country | Continent

< Previous map       Next map >
Remove: wad | map | category | player | allE3M7
MapPlayerTimeDateFilenameCommentsDL
E3M7: Gate To LimboHi Jango55.002005-08-23e3m7-055.zip - 239
E3M7: Gate To LimboHi Jango56.002005-08-23e3m7-056.zip - 126
E3M7: Gate To LimboDrew DeVore57.002002-10-06e3m7-057.zip - 135
E3M7: Gate To LimboAdam Hegyi58.001999-06-23e3m7-058.zip - 80
E3M7: Gate To LimboAndy Kempling1:00.001999-06-22e3m7-100.zip - 90
E3M7: Gate To LimboAdam Hegyi1:03.001999-02-04e3m7-103.zip - 82
E3M7: Gate To LimboThomas Pilger1:04.001998-04-17e3m7-104.zip - 81
E3M7: Gate To LimboEsko Koskimaa1:05.001998-03-22e3m7-105.zip - 91
E3M7: Gate To LimboSteffen Udluft1:12.001998-03-19e3m7-112.zip - 88
E3M7: Gate To LimboSteffen Udluft1:13.001998-03-08e3m7-113.zip - 89
E3M7: Gate To LimboAndreas Kren1:17.001996-03-01e3m7-117.zip - 58
E3M7: Gate To LimboEelco de Vries2:14.001995-07-12e3m7-214.zip - 51
E3M7: Gate To LimboEelco de Vries2:24.001995-06-15e3m7-224.zip - 55
E3M7: Gate To LimboGuillaume Pierson1:01.002009-04-07n3m7-101.zip - 539
E3M7: Gate To LimboGuillaume Pierson1:02.002009-04-04n3m7-102.zip - 172
E3M7: Gate To LimboAdam Hegyi1:03.002000-01-28n3m7-103.zip - 92
E3M7: Gate To LimboVincent Catalaa1:05.002000-01-18n3m7-105.zip - 79
E3M7: Gate To LimboAdam Hegyi1:11.001999-03-07n3m7-111.zip - 88
E3M7: Gate To LimboThomas Pilger1:17.001998-04-09n3m7-117.zip - 81
E3M7: Gate To LimboPeo Sjoblom1:20.001997-07-07n3m7-120.zip - 70
E3M7: Gate To LimboTatsuya Ito1:57.002019-01-27e3m7-157.zip - 217
E3M7: Gate To LimboJim Leonard2:01.002006-03-16e3m7-201.zip - 245
E3M7: Gate To LimboRadek Pecka2:09.002001-01-28e3m7-209.zip - 75
E3M7: Gate To LimboRadek Pecka2:19.002000-11-07e3m7-219.zip - 92
E3M7: Gate To LimboRadek Pecka2:21.002000-11-05e3m7-221.zip - 66
E3M7: Gate To LimboChris Ratcliff2:23.002000-11-04e3m7-223.zip - 111
E3M7: Gate To LimboRadek Pecka2:31.002000-09-19e3m7-231.zip - 78
E3M7: Gate To LimboJan Endre Jansen2:35.001998-09-30e3m7-235.zip - 69
E3M7: Gate To LimboEelco de Vries2:38.001998-09-28e3m7-238.zip - 48
E3M7: Gate To LimboJan Endre Jansen2:44.001998-09-12e3m7-244.zip - 56
E3M7: Gate To LimboSteffen Udluft2:48.001998-01-16e3m7-248.zip - 56
E3M7: Gate To LimboYonatan Donner2:52.001997-02-06e3m7-252.zip - 48
E3M7: Gate To LimboBlake Cole4:31.001996-02-09e3m7-431.zip - 73
E3M7: Gate To LimboEelco de Vries6:31.001995-06-01e3m7-631.zip - 52
E3M7: Gate To LimboEelco de Vries7:30.001995-04-05e3m7-730.zip - 46
E3M7: Gate To LimboAdam Hegyi1:15.002000-08-18n3s7-115.zip - 172
E3M7: Gate To LimboMarko van der Want1:27.002000-08-15n3s7-127.zip - 75
E3M7: Gate To LimboAdam Hegyi1:28.001999-06-26n3s7-128.zip - 78
E3M7: Gate To LimboJim Leonard4:31.002003-05-17t3m7-431.zip - 218
E3M7: Gate To LimboChris Ratcliff4:46.002002-06-17t3m7-446.zip - 92
E3M7: Gate To LimboJim Leonard5:18.002002-06-12t3m7-518.zip - 136
E3M7: Gate To LimboChris Ratcliff5:49.002002-06-11t3m7-549.zip - 79
E3M7: Gate To LimboJim Leonard6:18.002002-06-08t3m7-618.zip - 132
E3M7: Gate To LimboRadek Pecka7:33.002000-11-19t3m7-733.zip - 81
E3M7: Gate To LimboAnders Johnsen8:00.001999-03-22t3m7-800.zip - 81
E3M7: Gate To LimboPatrick Martin10:52.001997-06-03t3m71052.zip - 49
E3M7: Gate To LimboHi Jango55.002005-08-23e3m7-055.zip - 202
E3M7: Gate To LimboHi Jango56.002005-08-23e3m7-056.zip - 141
E3M7: Gate To LimboDrew DeVore57.002002-10-06e3m7-057.zip - 87
E3M7: Gate To LimboAdam Hegyi58.001999-06-23e3m7-058.zip - 85
E3M7: Gate To LimboAdam Hegyi1:03.001999-02-04e3m7-103.zip - 71
E3M7: Gate To LimboThomas Pilger1:04.001998-04-17e3m7-104.zip - 72
E3M7: Gate To LimboSteffen Udluft1:12.001998-03-19e3m7-112.zip - 91
E3M7: Gate To LimboAndy Badorek1:19.001998-05-01p3m7-119.zip - 49
E3M7: Gate To LimboSteffen Udluft1:23.001998-01-01p3m7-123.zip - 77
E3M7: Gate To LimboRobert J. Reevy2:01.001997-11-01p3m7-201.zip - 39
E3M7: Gate To LimboRadek Pecka2:25.002001-12-06f3m7-225.zip - 183
E3M7: Gate To LimboChris Ratcliff2:31.002000-11-03f3m7-231.zip - 92
E3M7: Gate To LimboAnders Johnsen2:43.001999-04-07f3m7-243.zip - 77
E3M7: Gate To LimboJoe Abene2:59.001999-02-21f3m7-259.zip - 87
E3M7: Gate To LimboJan Endre Jansen3:26.001998-09-12f3m7-326.zip - 67
E3M7: Gate To LimboRadek Pecka1:45.002000-09-20r3m7-145.zip - 187
E3M7: Gate To LimboArno Slagboom1:50.001999-11-05r3m7-150.zip - 65
E3M7: Gate To LimboArno Slagboom1:52.001999-10-10r3m7-152.zip - 65
E3M7: Gate To LimboArno Slagboom1:54.001999-10-06r3m7-154.zip - 68
E3M7: Gate To LimboArno Slagboom1:57.001999-10-05r3m7-157.zip - 59
E3M7: Gate To LimboArno Slagboom2:00.001999-10-05r3m7-200.zip - 58
E3M7: Gate To LimboArno Slagboom2:04.001999-10-03r3m7-204.zip - 60
E3M7: Gate To LimboArno Slagboom2:06.001999-10-03r3m7-206.zip - 49
E3M7: Gate To LimboJan Endre Jansen2:10.001998-09-11r3m7-210.zip - 30
E3M7: Gate To LimboSteffen Udluft2:21.001998-03-18r3m7-221.zip - 60
E3M7: Gate To LimboArno Slagboom1:02.742000-05-01u3710274.zip - 183
Remove: wad | map | category | player | all